Date String (YYYY-MM-DD hh:mm:ss) UTC,Instrument flags,Ambient pressure (hPa),Sample flow (lpm),Bypass flow (lpm),Sample temperature (°C),Ambient temperature (°C),ASC tube jacket temperature (°C),LED temperature (°C),Box temperature (°C),Sample RH (%),Span deviation,Mass concentration (μg/m³),Mass concentration (μg/m³),Mass concentration (μg/m³)
DateTimeUTC,F1_M11,P_M11,Q1_M11,Q2_M11,T1_M11,T2_M11,T3_M11,T4_M11,T5_M11,U1_M11,ZSPAN_M11,X0_M11,X2_M11,X1_M11
2022-08-12 13:00:00,,0832.2,5.00,0.00,29.9,28.9,00.0,38.7,31.9,25.6,0000.0,0013.13,0005.90,0005.01
2022-08-12 13:01:00,,0832.2,4.99,0.00,29.9,28.9,00.0,38.7,31.9,25.0,0000.0,0013.29,0005.95,0005.02
2022-08-12 13:02:00,,0832.2,5.00,0.00,30.0,29.0,00.0,38.7,31.9,24.8,0000.0,0013.32,0005.99,0005.03
2022-08-12 13:03:00,,0832.1,5.00,0.00,30.0,28.5,00.0,38.7,31.8,24.6,0000.0,0012.93,0005.98,0005.04
2022-08-12 13:04:00,,0832.1,5.01,0.00,29.9,27.7,00.0,38.6,31.5,24.5,0000.0,0012.05,0006.03,0005.06
2022-08-12 13:05:00,,0832.1,5.00,0.00,29.8,27.3,00.0,38.6,31.5,24.2,0000.0,0011.80,0006.04,0005.06
2022-08-12 13:06:00,,0832.1,5.01,0.00,29.7,27.3,00.0,38.6,31.3,24.0,0000.0,0011.13,0006.02,0005.04
2022-08-12 13:07:00,,0832.1,4.99,0.00,29.7,27.4,00.0,38.6,31.3,23.8,0000.0,0011.17,0005.99,0004.99
2022-08-12 13:08:00,,0832.1,5.01,0.00,29.6,27.5,00.0,38.5,31.4,24.4,0000.0,0010.68,0005.94,0004.95
2022-08-12 13:09:00,,0832.1,5.00,0.00,29.6,27.7,00.0,38.5,31.4,25.0,0000.0,0010.18,0005.90,0004.92
2022-08-12 13:10:00,,0832.1,5.00,0.00,29.6,27.8,00.0,38.5,31.4,25.7,0000.0,0010.22,0005.90,0004.91
2022-08-12 13:11:00,,0832.2,4.99,0.00,29.6,28.0,00.0,38.5,31.5,25.5,0000.0,0009.95,0005.87,0004.90
2022-08-12 13:12:00,,0832.2,5.01,0.00,29.6,28.1,00.0,38.5,31.5,25.4,0000.0,0009.86,0005.80,0004.90
2022-08-12 13:13:00,,0832.2,4.99,0.00,29.6,28.2,00.0,38.5,31.5,25.4,0000.0,0009.81,0005.75,0004.89
2022-08-12 13:14:00,,0832.2,5.00,0.00,29.7,28.3,00.0,38.5,31.6,25.3,0000.0,0009.85,0005.73,0004.88
2022-08-12 13:15:00,,0832.3,5.01,0.00,29.7,28.4,00.0,38.5,31.6,25.7,0000.0,0009.71,0005.66,0004.87
2022-08-12 13:16:00,,0832.3,4.99,0.00,29.7,28.4,00.0,38.5,31.6,25.8,0000.0,0010.30,0005.65,0004.87
2022-08-12 13:17:00,,0832.3,4.99,0.00,29.7,28.5,00.0,38.5,31.6,26.2,0000.0,0010.54,0005.72,0004.90
2022-08-12 13:18:00,,0832.2,5.00,0.00,29.7,28.6,00.0,38.5,31.7,26.5,0000.0,0011.46,0005.79,0004.95
2022-08-12 13:19:00,,0832.3,5.01,0.00,29.7,28.6,00.0,38.5,31.7,26.8,0000.0,0012.09,0005.85,0005.00
2022-08-12 13:20:00,,0832.3,5.00,0.00,29.8,28.7,00.0,38.5,31.7,26.9,0000.0,0013.09,0005.91,0005.04
2022-08-12 13:21:00,,0832.3,5.00,0.00,29.8,28.7,00.0,38.6,31.7,27.1,0000.0,0013.41,0006.01,0005.07
2022-08-12 13:22:00,,0832.3,5.00,0.00,29.8,28.8,00.0,38.6,31.8,27.4,0000.0,0013.79,0006.12,0005.09
2022-08-12 13:23:00,,0832.3,5.00,0.00,29.8,28.8,00.0,38.6,31.8,27.4,0000.0,0014.52,0006.13,0005.09
2022-08-12 13:24:00,,0832.3,4.99,0.00,29.8,28.9,00.0,38.6,31.8,27.5,0000.0,0015.24,0006.14,0005.09
2022-08-12 13:25:00,,0832.3,5.00,0.00,29.9,28.9,00.0,38.6,31.9,27.7,0000.0,0015.56,0006.13,0005.09
2022-08-12 13:26:00,,0832.4,5.00,0.00,29.9,28.9,00.0,38.6,31.9,27.8,0000.0,0015.91,0006.14,0005.09
2022-08-12 13:27:00,,0832.3,5.00,0.00,29.9,29.0,00.0,38.7,31.9,27.8,0000.0,0015.45,0006.15,0005.09
2022-08-12 13:28:00,,0832.3,5.01,0.00,29.9,28.6,00.0,38.7,31.8,27.9,0000.0,0015.70,0006.15,0005.09
2022-08-12 13:29:00,,0832.3,5.01,0.00,29.9,27.8,00.0,38.6,31.6,28.1,0000.0,0014.97,0006.14,0005.08
2022-08-12 13:30:00,,0832.4,4.99,0.00,29.8,27.4,00.0,38.6,31.5,28.3,0000.0,0014.65,0006.14,0005.09
2022-08-12 13:31:00,,0832.4,5.00,0.00,29.8,27.4,00.0,38.6,31.4,28.6,0000.0,0014.29,0006.17,0005.09
2022-08-12 13:32:00,,0832.3,5.01,0.00,29.7,27.5,00.0,38.5,31.4,28.6,0000.0,0014.49,0006.22,0005.10
2022-08-12 13:33:00,,0832.4,5.00,0.00,29.7,27.6,00.0,38.5,31.4,28.9,0000.0,0014.90,0006.18,0005.11
2022-08-12 13:34:00,,0832.3,5.00,0.00,29.7,27.8,00.0,38.5,31.5,29.3,0000.0,0014.12,0006.19,0005.12
2022-08-12 13:35:00,,0832.3,5.00,0.00,29.6,27.9,00.0,38.5,31.5,29.1,0000.0,0013.36,0006.19,0005.12
2022-08-12 13:36:00,,0832.3,5.01,0.00,29.6,28.1,00.0,38.5,31.5,29.3,0000.0,0013.05,0006.18,0005.13
2022-08-12 13:37:00,,0832.3,4.99,0.00,29.6,28.2,00.0,38.5,31.5,28.8,0000.0,0012.80,0006.20,0005.14
2022-08-12 13:38:00,,0832.4,5.00,0.00,29.7,28.3,00.0,38.5,31.6,29.3,0000.0,0013.16,0006.21,0005.16
2022-08-12 13:39:00,,0832.3,5.01,0.00,29.7,28.4,00.0,38.5,31.6,29.3,0000.0,0012.89,0006.18,0005.16
2022-08-12 13:40:00,,0832.4,5.00,0.00,29.7,28.5,00.0,38.5,31.6,28.8,0000.0,0012.94,0006.19,0005.17
2022-08-12 13:41:00,,0832.3,4.99,0.00,29.7,28.5,00.0,38.5,31.6,28.8,0000.0,0012.92,0006.23,0005.18
2022-08-12 13:42:00,,0832.3,5.00,0.00,29.7,28.6,00.0,38.5,31.7,29.0,0000.0,0012.70,0006.22,0005.17
2022-08-12 13:43:00,,0832.3,5.00,0.00,29.7,28.7,00.0,38.5,31.7,28.3,0000.0,0012.36,0006.12,0005.14
2022-08-12 13:44:00,,0832.3,5.00,0.00,29.8,28.7,00.0,38.6,31.7,28.1,0000.0,0011.69,0006.04,0005.10
2022-08-12 13:45:00,,0832.3,5.01,0.00,29.8,28.8,00.0,38.6,31.7,28.4,0000.0,0011.92,0006.06,0005.07
2022-08-12 13:46:00,,0832.3,4.99,0.00,29.8,28.8,00.0,38.6,31.7,28.5,0000.0,0012.27,0006.03,0005.05
2022-08-12 13:47:00,,0832.3,5.00,0.00,29.8,28.9,00.0,38.6,31.8,28.3,0000.0,0012.38,0006.00,0005.03
2022-08-12 13:48:00,,0832.4,5.00,0.00,29.9,28.9,00.0,38.6,31.8,27.6,0000.0,0012.31,0005.97,0005.01
2022-08-12 13:49:00,,0832.5,5.01,0.00,29.9,28.5,00.0,38.6,31.7,27.2,0000.0,0012.56,0005.95,0004.98
2022-08-12 13:50:00,,0832.5,4.99,0.00,29.8,27.7,00.0,38.6,31.6,27.2,0000.0,0013.43,0005.96,0004.96
2022-08-12 13:51:00,,0832.5,5.00,0.00,29.8,27.5,00.0,38.5,31.5,27.5,0000.0,0013.40,0005.91,0004.93
2022-08-12 13:52:00,,0832.5,5.00,0.00,29.7,27.5,00.0,38.5,31.4,26.7,0000.0,0013.20,0005.84,0004.89
2022-08-12 13:53:00,,0832.5,5.01,0.00,29.6,27.6,00.0,38.5,31.4,27.0,0000.0,0013.25,0005.78,0004.88
2022-08-12 13:54:00,,0832.5,4.99,0.00,29.6,27.7,00.0,38.5,31.4,27.6,0000.0,0013.01,0005.77,0004.88
2022-08-12 13:55:00,,0832.5,5.01,0.00,29.6,27.8,00.0,38.5,31.4,27.8,0000.0,0013.13,0005.79,0004.90
2022-08-12 13:56:00,,0832.6,4.99,0.00,29.6,28.0,00.0,38.5,31.5,27.5,0000.0,0013.72,0005.79,0004.91
2022-08-12 13:57:00,,0832.5,5.01,0.00,29.6,28.1,00.0,38.5,31.5,26.9,0000.0,0013.65,0005.78,0004.91
2022-08-12 13:58:00,,0832.5,4.99,0.00,29.6,28.2,00.0,38.5,31.5,26.6,0000.0,0013.37,0005.75,0004.89
2022-08-12 13:59:00,,0832.5,5.00,0.00,29.6,28.3,00.0,38.5,31.6,26.5,0000.0,0014.04,0005.72,0004.89
